SCP
0 0 0 0 0 0 0 0 0 0 0 0 0 0 0 0 0 0 0 0 0 0 0 0 0 0 0 0 0 1 1 1 0 0 0 0 0 0 0 0 0 0 0 0 0 0 0 0 0
0 0 0 0 0 0 0 0 0 0 0 0 0 0 0 0 0 0 0 0 0 0 0 0 0 0 1 0 1 1 1 1 0 0 0 0 0 0 0 0 0 0 0 0 0 0 0 0 0
0 0 0 0 0 0 0 0 0 0 0 0 0 0 0 0 0 0 0 0 0 0 0 0 0 0 0 1 1 1 1 1 1 0 0 0 0 0 0 0 0 0 0 0 0 0 0 0 0
0 0 0 0 0 0 0 0 0 0 0 0 0 0 0 0 0 0 0 0 0 0 0 0 0 0 0 0 1 0 0 0 0 0 0 0 0 0 0 0 0 0 0 0 0 0 0 0 0
0 0 0 0 0 0 0 0 0 0 0 0 0 0 0 0 0 0 0 0 0 0 0 0 0 0 0 0 0 1 1 0 0 0 0 0 1 0 0 0 0 0 0 0 0 0 0 0 0
0 0 0 0 0 0 0 0 0 0 0 0 0 0 0 0 0 0 0 0 0 0 0 0 0 0 0 0 0 0 0 1 1 0 0 1 1 1 0 0 0 0 0 0 0 0 0 0 0
0 0 0 0 0 0 0 0 0 0 0 0 0 0 0 0 0 0 0 0 0 0 0 0 0 0 0 0 0 0 0 0 0 1 0 0 0 0 0 0 0 0 0 0 0 0 0 0 0
0 0 0 0 0 0 0 0 0 0 0 0 0 0 0 0 0 0 0 0 0 0 0 0 0 0 0 0 0 0 0 0 0 0 0 0 0 0 0 0 0 0 0 0 0 0 0 0 0
0 0 0 0 0 0 0 0 0 0 0 0 0 0 0 0 0 0 0 0 0 0 0 0 0 0 0 0 0 0 0 0 0 0 0 0 0 0 0 0 0 0 0 0 0 0 0 0 0
0 0 0 0 0 0 0 0 0 0 0 0 0 0 0 0 0 0 0 0 0 0 0 0 0 0 0 0 0 0 0 0 0 0 0 0 1 1 0 0 0 0 0 0 0 0 0 0 0
0 0 0 0 0 0 0 0 0 0 0 0 0 0 0 0 0 0 0 0 0 0 0 0 0 0 0 0 0 0 0 0 0 0 0 0 0 0 0 1 0 0 0 0 0 0 0 0 0
0 0 0 0 0 0 0 0 0 0 0 0 0 0 0 0 0 0 0 0 0 0 0 0 0 0 0 0 0 0 0 0 0 0 0 0 0 0 0 0 0 0 0 0 0 0 0 0 0
0 0 0 0 0 0 0 0 0 0 0 0 0 0 0 0 0 0 0 0 0 0 0 0 0 0 0 0 0 0 0 0 0 0 0 0 0 0 0 0 0 0 0 0 0 0 0 0 0
0 0 0 0 0 0 0 0 0 0 0 0 0 0 0 0 0 0 0 0 0 0 0 0 0 0 0 0 0 0 0 0 0 0 0 0 0 0 0 0 0 0 0 0 0 0 0 0 0
0 0 0 0 0 0 0 0 0 0 0 0 0 0 0 0 0 0 0 0 0 0 0 0 0 0 0 0 0 0 0 0 0 0 0 0 0 0 0 0 0 0 0 0 0 0 0 0 0
0 0 0 0 0 0 0 0 0 0 0 0 0 0 0 0 0 0 0 0 0 0 0 0 0 0 0 0 0 0 0 0 0 0 0 0 0 0 0 0 0 0 0 0 0 0 0 0 0
0 0 0 0 0 0 0 0 0 0 0 0 0 0 0 0 0 0 0 0 0 0 0 0 0 0 0 0 0 0 0 0 0 0 0 0 0 0 0 0 0 0 0 0 0 0 0 0 0
0 0 0 0 0 0 0 0 0 0 0 0 0 0 0 0 0 0 0 0 0 0 0 0 0 0 0 0 0 0 0 0 0 0 0 0 0 0 0 0 0 0 1 1 0 0 0 0 0
0 0 0 0 0 0 0 0 0 0 0 0 0 0 0 0 0 0 0 0 0 0 0 0 0 0 0 0 0 0 0 0 0 0 0 0 0 0 0 0 0 1 1 0 0 0 0 0 0
0 0 0 0 0 0 0 0 0 0 0 0 0 0 0 0 0 0 0 0 0 0 0 0 0 0 0 0 0 0 0 0 0 0 0 0 0 0 0 0 0 0 1 0 0 0 0 0 0
0 0 0 0 -0 0 0 0 0 0 0 0 0 0 0 0 0 0 0 0 0 0 0 0 0 0 0 0 0 0 0 0 0 0 0 0 0 0 0 0 0 0 0 0 0 0 0 0 0
0 0 0 0 0 0 0 0 0 0 0 0 0 0 0 0 0 0 0 0 -0 -0 0 0 0 0 0 0 0 0 0 0 0 0 0 0 0 0 0 0 0 0 0 0 0 0 0 0 0
0 0 0 0 0 0 0 0 0 0 0 0 0 0 0 0 0 -0 -0 -0 -0 0 0 0 0 0 0 0 0 0 0 0 0 0 0 0 0 0 0 0 0 0 0 0 0 0 0 0 0
0 0 0 0 0 0 0 0 0 0 0 0 0 0 0 0 0 0 0 -0 -0 -0 0 0 0 0 0 0 0 0 0 0 0 0 0 0 0 0 0 0 0 0 0 0 0 0 0 0 0
0 0 0 0 0 0 0 0 0 0 0 0 -0 -0 0 -0 -0 0 0 -0 -0 -0 -0 0 0 0 0 0 0 0 0 0 0 0 0 0 0 0 0 0 0 0 0 0 0 0 0 0 0
0 0 0 0 0 0 0 0 0 0 0 0 0 -0 -0 -0 0 0 0 -0 -0 -0 -0 0 0 0 0 0 0 0 0 0 0 0 0 0 0 0 0 0 0 0 0 0 0 0 0 0 0
0 0 0 0 0 0 0 0 0 0 0 0 0 -0 -0 -0 -0 0 0 -0 -0 -0 -0 0 0 0 0 0 0 0 0 0 0 0 0 0 0 0 0 0 0 0 0 0 0 0 0 0 0
0 0 0 0 0 0 0 0 0 0 0 0 0 0 -0 0 0 0 0 0 0 -0 0 0 0 0 0 0 0 0 0 0 0 0 0 0 0 0 0 0 0 0 0 0 0 0 0 0 0
0 0 0 0 0 0 0 0 0 0 0 0 0 -0 -0 -0 0 0 0 0 0 0 0 0 0 0 0 0 0 0 0 0 0 0 0 0 0 0 0 0 0 0 0 0 0 0 0 0 0
0 0 0 0 0 0 0 0 0 0 0 0 0 -0 -0 0 0 0 0 0 0 0 0 0 0 0 0 0 0 0 0 0 0 0 0 0 0 0 0 0 0 0 0 0 0 0 0 0 0
Wind_Speed_500mb
9 20 29 15 8 7 11 9 4 6 1 3 14 11 12 13 12 8 17 23 26 22 15 12 20 20 20 25 29 37 40 42 42 41 42 39 38 42 46 46 44 44 43 40 35 26 27 30 31
13 28 22 6 8 12 14 12 16 4 8 19 11 11 14 11 6 14 13 23 23 23 22 15 22 23 26 29 29 33 42 42 48 46 44 42 40 43 46 47 45 45 43 40 31 26 28 30 30
15 28 9 6 7 15 8 3 3 3 14 9 4 7 8 4 5 11 22 24 23 24 22 19 23 28 32 31 31 32 38 44 50 48 48 47 45 45 48 47 46 48 44 38 31 25 25 29 30
13 7 5 10 24 11 5 3 7 18 6 4 17 15 4 5 9 11 20 25 22 19 22 20 21 33 37 38 37 34 35 39 47 50 49 50 48 49 50 49 48 48 43 37 33 28 23 28 30
15 4 7 9 16 7 8 8 11 18 18 16 17 15 19 7 6 15 16 20 21 18 17 18 25 24 37 34 40 40 36 38 43 49 50 50 50 50 53 51 51 49 44 39 33 29 25 28 32
7 2 7 12 6 4 5 8 11 13 18 26 19 20 19 7 6 14 16 18 21 21 17 16 17 23 29 39 37 37 38 40 41 47 49 52 53 53 53 55 55 51 46 42 38 34 27 32 36
6 6 5 8 11 9 3 6 4 9 15 10 22 16 13 14 20 32 30 27 28 26 21 18 15 19 21 24 42 39 40 41 42 45 48 51 53 53 53 55 57 54 48 44 39 35 32 36 39
6 4 6 8 5 6 4 5 5 11 14 22 7 9 14 33 59 54 48 45 37 33 32 27 22 15 16 19 27 29 36 46 43 44 47 51 54 54 54 54 56 55 50 45 41 38 34 38 41
6 6 8 6 7 2 1 8 9 14 31 24 22 28 26 47 58 63 62 57 52 42 37 35 32 26 18 13 13 30 27 24 27 47 47 52 52 54 57 58 58 57 50 46 44 39 37 41 44
4 5 2 1 5 11 18 22 27 21 34 37 38 23 38 44 43 44 50 57 56 54 49 41 39 34 30 22 13 14 16 14 16 25 34 54 56 54 54 53 55 58 53 47 44 39 39 43 50
2 4 4 8 10 13 19 28 31 30 28 15 22 35 42 39 36 36 38 43 55 58 55 52 46 40 32 34 31 18 16 15 14 17 19 28 46 54 60 55 61 64 54 45 43 39 41 51 46
6 5 7 4 6 15 25 24 21 25 20 12 17 25 33 40 41 40 39 42 46 51 54 51 52 49 41 39 36 41 23 20 22 20 19 18 25 35 42 44 46 71 49 41 43 45 46 52 54
5 1 10 17 28 25 16 23 24 28 12 12 18 24 31 38 42 44 45 47 45 50 53 51 47 49 48 45 41 40 52 47 32 28 24 24 21 22 24 26 31 43 52 51 48 51 51 51 57
2 18 26 19 14 10 14 24 15 6 8 13 20 25 32 37 40 46 43 45 47 50 51 53 46 45 48 48 45 41 42 45 50 45 32 30 31 27 28 25 26 40 51 55 52 55 58 58 57
6 10 15 5 4 7 14 25 17 5 7 18 27 33 36 38 41 41 43 48 46 46 48 51 50 40 45 47 48 43 44 44 55 45 46 38 35 37 35 35 33 44 51 70 62 68 66 60 63
5 4 16 7 9 4 5 26 4 7 13 19 26 31 36 39 39 37 41 44 45 42 43 46 46 43 37 42 46 48 50 44 39 45 41 47 39 38 42 43 42 41 49 69 83 72 67 61 62
6 18 28 20 4 9 14 30 2 9 9 17 21 28 32 37 37 37 39 41 40 40 40 41 38 34 34 35 43 45 46 44 34 42 48 40 45 42 45 48 44 43 52 66 76 76 66 69 71
14 19 21 32 13 20 36 46 33 21 14 11 19 26 30 32 37 39 38 37 36 34 30 34 35 25 32 29 37 44 44 37 36 36 34 37 41 44 45 48 49 46 52 66 75 67 65 77 70
12 20 39 34 22 20 33 37 36 23 19 12 16 27 33 36 37 35 35 35 31 25 25 25 35 33 28 22 28 37 40 35 31 30 31 35 42 41 43 48 50 58 60 59 67 70 73 65 67
14 31 27 18 17 27 34 45 31 17 18 6 20 30 31 38 38 38 36 36 29 25 23 24 30 38 31 23 24 35 39 39 35 34 37 40 45 44 43 45 47 61 65 56 64 66 69 68 73
15 21 19 35 44 20 21 20 5 13 16 12 21 26 27 32 40 41 39 37 33 29 26 22 20 32 36 31 24 28 29 30 32 32 31 40 41 45 45 47 50 62 56 54 69 73 64 69 73
12 6 25 33 14 9 3 11 9 12 14 13 26 32 32 33 34 37 38 36 33 32 26 19 16 24 32 25 22 23 23 26 26 28 28 38 42 44 43 51 56 51 63 66 67 64 61 68 76
14 29 26 7 8 11 10 8 4 7 14 8 28 32 32 32 33 37 36 34 30 29 29 21 12 14 23 21 19 19 20 23 23 25 29 35 38 37 43 48 57 54 62 67 67 74 69 72 79
21 12 7 2 5 7 8 5 10 6 3 14 26 34 33 35 34 32 35 32 30 28 26 21 15 12 16 16 16 16 18 17 19 24 27 30 31 30 34 44 52 60 55 69 71 72 69 80 85
17 15 7 6 5 6 8 11 18 9 8 9 23 32 29 32 33 33 35 35 32 30 30 23 16 10 11 11 11 13 14 14 15 16 20 25 24 28 32 42 51 57 58 63 63 74 72 80 68
12 6 4 14 11 13 4 11 4 2 7 14 19 22 22 30 31 31 31 30 28 29 32 26 21 15 8 1 4 8 9 9 14 13 15 20 23 23 27 35 49 55 54 55 54 56 53 46 65
8 3 4 7 4 9 8 8 8 4 11 23 23 23 26 30 32 31 30 28 28 26 27 28 23 16 8 1 4 7 10 12 16 16 15 18 20 21 26 31 38 44 50 47 45 46 37 47 38
4 13 3 5 11 13 9 10 11 3 22 31 22 25 27 28 29 28 26 27 26 23 21 21 22 18 12 4 6 11 12 15 17 16 19 18 19 19 23 28 34 40 44 45 50 57 44 48 46
7 6 5 3 5 7 13 3 4 5 18 25 23 23 22 24 27 26 26 26 24 20 18 19 17 15 12 9 10 14 17 18 21 25 26 24 24 26 28 28 35 37 43 43 59 71 63 58 60
2 4 6 5 4 8 7 13 8 4 10 20 24 18 16 17 22 23 24 25 23 21 21 24 22 19 17 15 15 20 25 26 29 34 36 35 35 39 42 45 45 58 61 56 54 67 63 63 55
Wind_Direction_500mb
90 131 139 131 198 249 254 256 283 231 186 80 314 270 290 295 276 321 333 313 324 321 303 263 210 220 233 236 230 222 218 210 206 202 196 195 192 191 191 190 191 190 190 194 195 206 201 198 199
116 139 140 152 236 233 243 247 244 289 315 316 300 278 243 265 304 313 328 330 330 318 314 266 224 217 219 232 235 231 216 215 214 206 204 201 200 199 197 196 198 195 194 196 207 214 205 193 197
136 153 182 208 218 246 267 243 347 3 329 326 302 325 311 313 336 318 320 336 339 323 319 297 238 223 220 223 235 238 223 217 216 211 209 207 206 207 204 202 199 197 200 207 210 203 209 200 194
141 155 84 233 237 249 280 100 339 306 305 38 344 274 291 278 319 306 310 318 331 325 308 295 265 235 225 221 217 228 227 226 221 216 212 213 211 211 213 208 202 201 205 215 211 209 218 206 197
156 152 203 245 255 269 261 313 307 297 299 302 325 277 289 277 311 310 292 294 309 323 319 296 276 256 246 250 228 216 221 224 224 222 218 216 217 216 216 215 210 207 210 211 219 221 225 211 199
131 195 218 245 239 241 255 310 289 277 285 298 294 292 270 184 294 294 305 304 305 307 307 301 286 267 252 240 233 228 225 217 222 225 224 223 223 223 221 220 216 213 213 214 220 229 225 211 200
188 210 304 288 287 264 190 339 267 311 295 319 325 279 271 230 300 309 303 310 311 298 288 284 287 278 268 254 242 232 226 226 223 218 224 226 229 229 229 225 220 216 217 219 225 232 229 210 201
134 224 206 211 257 279 148 320 305 294 298 313 298 273 287 303 305 307 308 301 297 294 291 287 287 282 277 263 238 228 226 228 228 228 223 223 226 228 230 230 224 222 220 224 229 233 231 209 203
124 206 242 242 214 349 250 312 295 289 286 285 276 293 306 308 305 300 296 296 292 278 283 284 281 284 277 268 259 246 259 240 226 232 229 226 227 228 230 228 227 226 227 230 230 229 227 205 201
225 234 254 132 229 271 283 287 297 289 282 280 278 273 312 316 324 320 309 299 296 289 283 282 277 278 276 264 263 258 240 239 256 259 249 232 229 232 233 233 231 231 232 227 227 227 219 203 200
152 269 138 233 248 285 289 283 286 278 282 296 299 306 310 319 322 321 319 308 299 294 288 283 276 273 272 267 254 273 273 264 258 256 253 246 234 235 234 235 237 232 220 220 222 222 210 204 198
247 238 247 296 266 299 291 293 266 267 278 278 292 302 312 314 315 316 310 309 304 290 286 280 276 269 264 261 262 253 270 273 260 258 258 250 239 241 245 239 247 231 201 215 220 218 209 207 204
241 292 272 268 289 290 267 255 269 268 274 294 306 311 311 308 308 306 304 298 300 297 288 280 271 266 261 255 256 261 254 260 277 265 253 256 255 244 230 240 238 226 231 217 220 226 217 212 212
222 293 290 291 282 281 278 280 279 220 295 309 318 318 315 311 309 306 305 303 291 287 290 282 270 261 257 252 249 250 251 255 256 270 271 257 252 253 244 234 231 227 226 220 216 227 226 220 218
296 296 302 266 201 262 305 264 233 228 308 312 316 316 313 311 308 304 303 301 302 289 288 286 276 262 253 247 242 241 247 245 253 253 267 266 257 249 245 227 232 229 230 227 225 246 228 227 223
279 249 337 68 278 276 303 289 189 230 317 312 316 316 316 314 313 310 306 302 298 295 291 289 282 273 256 246 236 231 237 244 242 250 262 265 260 255 245 232 227 237 232 221 226 218 220 225 227
58 321 322 329 205 284 239 292 77 241 276 300 316 316 319 317 317 316 312 309 303 293 290 291 285 285 274 245 233 228 224 231 236 241 244 245 252 253 242 233 235 234 233 229 223 212 219 227 230
318 320 311 307 327 269 271 273 276 248 247 280 317 324 322 321 323 323 322 318 304 292 288 294 280 277 274 255 227 223 234 239 239 239 244 241 247 248 242 233 224 226 230 232 219 223 228 220 226
286 292 301 304 333 282 268 278 287 254 230 256 321 332 330 325 325 326 329 327 310 295 295 303 270 264 273 261 222 213 217 230 237 252 253 242 242 244 242 234 225 225 227 225 231 233 222 213 226
295 304 308 313 273 294 280 287 284 228 230 251 328 337 329 326 330 334 340 338 329 320 314 305 269 263 268 262 230 214 211 218 231 245 253 250 239 239 237 231 230 223 227 229 224 230 220 215 219
300 286 310 305 322 276 294 273 232 200 204 224 324 332 330 330 331 333 341 347 340 335 331 322 287 270 265 261 241 223 218 218 230 244 245 247 246 244 234 226 224 227 226 226 219 219 216 218 217
309 104 317 319 320 316 3 296 238 186 210 223 338 337 335 335 334 331 338 346 347 342 343 331 299 272 270 265 247 224 221 220 217 237 246 251 250 246 237 228 224 228 227 230 224 221 222 216 207
261 321 308 292 260 312 179 258 177 190 220 307 344 341 337 336 334 330 336 346 346 347 348 348 329 281 280 270 252 229 229 232 239 249 251 254 252 247 238 230 225 229 225 233 228 226 222 220 217
307 311 281 203 251 248 168 262 266 209 218 317 342 342 337 335 335 332 336 348 354 355 354 357 351 318 291 276 251 238 243 249 254 255 251 256 253 246 242 231 225 227 231 227 226 228 223 220 220
17 336 327 271 253 308 167 255 280 178 211 302 330 330 336 334 335 337 341 345 352 360 7 7 6 339 301 279 257 245 246 258 264 237 233 260 254 241 235 226 223 218 217 225 226 219 225 225 225
57 10 34 299 316 313 284 240 314 117 250 275 319 325 338 340 340 338 339 339 345 2 12 12 15 9 356 287 235 231 229 255 237 234 243 237 236 230 228 222 214 219 210 224 216 221 215 229 210
116 60 87 265 201 274 247 260 144 202 312 324 341 343 352 344 341 338 339 344 348 1 16 13 16 15 16 346 218 196 207 218 208 190 221 220 221 218 213 211 200 196 199 189 185 199 213 189 215
42 139 204 159 309 296 280 281 309 341 331 319 341 347 350 342 339 338 345 350 355 7 18 20 14 13 25 53 168 173 174 181 173 178 203 198 190 180 185 184 187 180 185 184 177 191 185 175 163
157 161 134 244 243 294 310 349 69 31 319 308 328 340 350 338 331 338 348 358 8 13 23 28 25 32 49 75 118 140 143 152 160 165 165 164 159 154 149 163 158 159 153 157 147 137 143 142 134
24 171 165 208 164 237 281 281 144 94 315 301 323 334 346 329 327 341 353 5 14 24 29 36 36 47 62 86 112 131 129 134 140 141 140 137 142 141 137 135 136 128 123 122 121 113 115 118 115
Wind_Speed_850mb
9 20 29 15 8 7 11 9 4 6 1 3 14 11 12 13 12 8 17 23 26 22 15 12 20 20 20 25 29 37 40 42 42 41 42 39 38 42 46 46 44 44 43 40 35 26 27 30 31
13 28 22 6 8 12 14 12 16 4 8 19 11 11 14 11 6 14 13 23 23 23 22 15 22 23 26 29 29 33 42 42 48 46 44 42 40 43 46 47 45 45 43 40 31 26 28 30 30
15 28 9 6 7 15 8 3 3 3 14 9 4 7 8 4 5 11 22 24 23 24 22 19 23 28 32 31 31 32 38 44 50 48 48 47 45 45 48 47 46 48 44 38 31 25 25 29 30
13 7 5 10 24 11 5 3 7 18 6 4 17 15 4 5 9 11 20 25 22 19 22 20 21 33 37 38 37 34 35 39 47 50 49 50 48 49 50 49 48 48 43 37 33 28 23 28 30
15 4 7 9 16 7 8 8 11 18 18 16 17 15 19 7 6 15 16 20 21 18 17 18 25 24 37 34 40 40 36 38 43 49 50 50 50 50 53 51 51 49 44 39 33 29 25 28 32
7 2 7 12 6 4 5 8 11 13 18 26 19 20 19 7 6 14 16 18 21 21 17 16 17 23 29 39 37 37 38 40 41 47 49 52 53 53 53 55 55 51 46 42 38 34 27 32 36
6 6 5 8 11 9 3 6 4 9 15 10 22 16 13 14 20 32 30 27 28 26 21 18 15 19 21 24 42 39 40 41 42 45 48 51 53 53 53 55 57 54 48 44 39 35 32 36 39
6 4 6 8 5 6 4 5 5 11 14 22 7 9 14 33 59 54 48 45 37 33 32 27 22 15 16 19 27 29 36 46 43 44 47 51 54 54 54 54 56 55 50 45 41 38 34 38 41
6 6 8 6 7 2 1 8 9 14 31 24 22 28 26 47 58 63 62 57 52 42 37 35 32 26 18 13 13 30 27 24 27 47 47 52 52 54 57 58 58 57 50 46 44 39 37 41 44
4 5 2 1 5 11 18 22 27 21 34 37 38 23 38 44 43 44 50 57 56 54 49 41 39 34 30 22 13 14 16 14 16 25 34 54 56 54 54 53 55 58 53 47 44 39 39 43 50
2 4 4 8 10 13 19 28 31 30 28 15 22 35 42 39 36 36 38 43 55 58 55 52 46 40 32 34 31 18 16 15 14 17 19 28 46 54 60 55 61 64 54 45 43 39 41 51 46
6 5 7 4 6 15 25 24 21 25 20 12 17 25 33 40 41 40 39 42 46 51 54 51 52 49 41 39 36 41 23 20 22 20 19 18 25 35 42 44 46 71 49 41 43 45 46 52 54
5 1 10 17 28 25 16 23 24 28 12 12 18 24 31 38 42 44 45 47 45 50 53 51 47 49 48 45 41 40 52 47 32 28 24 24 21 22 24 26 31 43 52 51 48 51 51 51 57
2 18 26 19 14 10 14 24 15 6 8 13 20 25 32 37 40 46 43 45 47 50 51 53 46 45 48 48 45 41 42 45 50 45 32 30 31 27 28 25 26 40 51 55 52 55 58 58 57
6 10 15 5 4 7 14 25 17 5 7 18 27 33 36 38 41 41 43 48 46 46 48 51 50 40 45 47 48 43 44 44 55 45 46 38 35 37 35 35 33 44 51 70 62 68 66 60 63
5 4 16 7 9 4 5 26 4 7 13 19 26 31 36 39 39 37 41 44 45 42 43 46 46 43 37 42 46 48 50 44 39 45 41 47 39 38 42 43 42 41 49 69 83 72 67 61 62
6 18 28 20 4 9 14 30 2 9 9 17 21 28 32 37 37 37 39 41 40 40 40 41 38 34 34 35 43 45 46 44 34 42 48 40 45 42 45 48 44 43 52 66 76 76 66 69 71
14 19 21 32 13 20 36 46 33 21 14 11 19 26 30 32 37 39 38 37 36 34 30 34 35 25 32 29 37 44 44 37 36 36 34 37 41 44 45 48 49 46 52 66 75 67 65 77 70
12 20 39 34 22 20 33 37 36 23 19 12 16 27 33 36 37 35 35 35 31 25 25 25 35 33 28 22 28 37 40 35 31 30 31 35 42 41 43 48 50 58 60 59 67 70 73 65 67
14 31 27 18 17 27 34 45 31 17 18 6 20 30 31 38 38 38 36 36 29 25 23 24 30 38 31 23 24 35 39 39 35 34 37 40 45 44 43 45 47 61 65 56 64 66 69 68 73
15 21 19 35 44 20 21 20 5 13 16 12 21 26 27 32 40 41 39 37 33 29 26 22 20 32 36 31 24 28 29 30 32 32 31 40 41 45 45 47 50 62 56 54 69 73 64 69 73
12 6 25 33 14 9 3 11 9 12 14 13 26 32 32 33 34 37 38 36 33 32 26 19 16 24 32 25 22 23 23 26 26 28 28 38 42 44 43 51 56 51 63 66 67 64 61 68 76
14 29 26 7 8 11 10 8 4 7 14 8 28 32 32 32 33 37 36 34 30 29 29 21 12 14 23 21 19 19 20 23 23 25 29 35 38 37 43 48 57 54 62 67 67 74 69 72 79
21 12 7 2 5 7 8 5 10 6 3 14 26 34 33 35 34 32 35 32 30 28 26 21 15 12 16 16 16 16 18 17 19 24 27 30 31 30 34 44 52 60 55 69 71 72 69 80 85
17 15 7 6 5 6 8 11 18 9 8 9 23 32 29 32 33 33 35 35 32 30 30 23 16 10 11 11 11 13 14 14 15 16 20 25 24 28 32 42 51 57 58 63 63 74 72 80 68
12 6 4 14 11 13 4 11 4 2 7 14 19 22 22 30 31 31 31 30 28 29 32 26 21 15 8 1 4 8 9 9 14 13 15 20 23 23 27 35 49 55 54 55 54 56 53 46 65
8 3 4 7 4 9 8 8 8 4 11 23 23 23 26 30 32 31 30 28 28 26 27 28 23 16 8 1 4 7 10 12 16 16 15 18 20 21 26 31 38 44 50 47 45 46 37 47 38
4 13 3 5 11 13 9 10 11 3 22 31 22 25 27 28 29 28 26 27 26 23 21 21 22 18 12 4 6 11 12 15 17 16 19 18 19 19 23 28 34 40 44 45 50 57 44 48 46
7 6 5 3 5 7 13 3 4 5 18 25 23 23 22 24 27 26 26 26 24 20 18 19 17 15 12 9 10 14 17 18 21 25 26 24 24 26 28 28 35 37 43 43 59 71 63 58 60
2 4 6 5 4 8 7 13 8 4 10 20 24 18 16 17 22 23 24 25 23 21 21 24 22 19 17 15 15 20 25 26 29 34 36 35 35 39 42 45 45 58 61 56 54 67 63 63 55
Wind_Direction_850mb
90 131 139 131 198 249 254 256 283 231 186 80 314 270 290 295 276 321 333 313 324 321 303 263 210 220 233 236 230 222 218 210 206 202 196 195 192 191 191 190 191 190 190 194 195 206 201 198 199
116 139 140 152 236 233 243 247 244 289 315 316 300 278 243 265 304 313 328 330 330 318 314 266 224 217 219 232 235 231 216 215 214 206 204 201 200 199 197 196 198 195 194 196 207 214 205 193 197
136 153 182 208 218 246 267 243 347 3 329 326 302 325 311 313 336 318 320 336 339 323 319 297 238 223 220 223 235 238 223 217 216 211 209 207 206 207 204 202 199 197 200 207 210 203 209 200 194
141 155 84 233 237 249 280 100 339 306 305 38 344 274 291 278 319 306 310 318 331 325 308 295 265 235 225 221 217 228 227 226 221 216 212 213 211 211 213 208 202 201 205 215 211 209 218 206 197
156 152 203 245 255 269 261 313 307 297 299 302 325 277 289 277 311 310 292 294 309 323 319 296 276 256 246 250 228 216 221 224 224 222 218 216 217 216 216 215 210 207 210 211 219 221 225 211 199
131 195 218 245 239 241 255 310 289 277 285 298 294 292 270 184 294 294 305 304 305 307 307 301 286 267 252 240 233 228 225 217 222 225 224 223 223 223 221 220 216 213 213 214 220 229 225 211 200
188 210 304 288 287 264 190 339 267 311 295 319 325 279 271 230 300 309 303 310 311 298 288 284 287 278 268 254 242 232 226 226 223 218 224 226 229 229 229 225 220 216 217 219 225 232 229 210 201
134 224 206 211 257 279 148 320 305 294 298 313 298 273 287 303 305 307 308 301 297 294 291 287 287 282 277 263 238 228 226 228 228 228 223 223 226 228 230 230 224 222 220 224 229 233 231 209 203
124 206 242 242 214 349 250 312 295 289 286 285 276 293 306 308 305 300 296 296 292 278 283 284 281 284 277 268 259 246 259 240 226 232 229 226 227 228 230 228 227 226 227 230 230 229 227 205 201
225 234 254 132 229 271 283 287 297 289 282 280 278 273 312 316 324 320 309 299 296 289 283 282 277 278 276 264 263 258 240 239 256 259 249 232 229 232 233 233 231 231 232 227 227 227 219 203 200
152 269 138 233 248 285 289 283 286 278 282 296 299 306 310 319 322 321 319 308 299 294 288 283 276 273 272 267 254 273 273 264 258 256 253 246 234 235 234 235 237 232 220 220 222 222 210 204 198
247 238 247 296 266 299 291 293 266 267 278 278 292 302 312 314 315 316 310 309 304 290 286 280 276 269 264 261 262 253 270 273 260 258 258 250 239 241 245 239 247 231 201 215 220 218 209 207 204
241 292 272 268 289 290 267 255 269 268 274 294 306 311 311 308 308 306 304 298 300 297 288 280 271 266 261 255 256 261 254 260 277 265 253 256 255 244 230 240 238 226 231 217 220 226 217 212 212
222 293 290 291 282 281 278 280 279 220 295 309 318 318 315 311 309 306 305 303 291 287 290 282 270 261 257 252 249 250 251 255 256 270 271 257 252 253 244 234 231 227 226 220 216 227 226 220 218
296 296 302 266 201 262 305 264 233 228 308 312 316 316 313 311 308 304 303 301 302 289 288 286 276 262 253 247 242 241 247 245 253 253 267 266 257 249 245 227 232 229 230 227 225 246 228 227 223
279 249 337 68 278 276 303 289 189 230 317 312 316 316 316 314 313 310 306 302 298 295 291 289 282 273 256 246 236 231 237 244 242 250 262 265 260 255 245 232 227 237 232 221 226 218 220 225 227
58 321 322 329 205 284 239 292 77 241 276 300 316 316 319 317 317 316 312 309 303 293 290 291 285 285 274 245 233 228 224 231 236 241 244 245 252 253 242 233 235 234 233 229 223 212 219 227 230
318 320 311 307 327 269 271 273 276 248 247 280 317 324 322 321 323 323 322 318 304 292 288 294 280 277 274 255 227 223 234 239 239 239 244 241 247 248 242 233 224 226 230 232 219 223 228 220 226
286 292 301 304 333 282 268 278 287 254 230 256 321 332 330 325 325 326 329 327 310 295 295 303 270 264 273 261 222 213 217 230 237 252 253 242 242 244 242 234 225 225 227 225 231 233 222 213 226
295 304 308 313 273 294 280 287 284 228 230 251 328 337 329 326 330 334 340 338 329 320 314 305 269 263 268 262 230 214 211 218 231 245 253 250 239 239 237 231 230 223 227 229 224 230 220 215 219
300 286 310 305 322 276 294 273 232 200 204 224 324 332 330 330 331 333 341 347 340 335 331 322 287 270 265 261 241 223 218 218 230 244 245 247 246 244 234 226 224 227 226 226 219 219 216 218 217
309 104 317 319 320 316 3 296 238 186 210 223 338 337 335 335 334 331 338 346 347 342 343 331 299 272 270 265 247 224 221 220 217 237 246 251 250 246 237 228 224 228 227 230 224 221 222 216 207
261 321 308 292 260 312 179 258 177 190 220 307 344 341 337 336 334 330 336 346 346 347 348 348 329 281 280 270 252 229 229 232 239 249 251 254 252 247 238 230 225 229 225 233 228 226 222 220 217
307 311 281 203 251 248 168 262 266 209 218 317 342 342 337 335 335 332 336 348 354 355 354 357 351 318 291 276 251 238 243 249 254 255 251 256 253 246 242 231 225 227 231 227 226 228 223 220 220
17 336 327 271 253 308 167 255 280 178 211 302 330 330 336 334 335 337 341 345 352 360 7 7 6 339 301 279 257 245 246 258 264 237 233 260 254 241 235 226 223 218 217 225 226 219 225 225 225
57 10 34 299 316 313 284 240 314 117 250 275 319 325 338 340 340 338 339 339 345 2 12 12 15 9 356 287 235 231 229 255 237 234 243 237 236 230 228 222 214 219 210 224 216 221 215 229 210
116 60 87 265 201 274 247 260 144 202 312 324 341 343 352 344 341 338 339 344 348 1 16 13 16 15 16 346 218 196 207 218 208 190 221 220 221 218 213 211 200 196 199 189 185 199 213 189 215
42 139 204 159 309 296 280 281 309 341 331 319 341 347 350 342 339 338 345 350 355 7 18 20 14 13 25 53 168 173 174 181 173 178 203 198 190 180 185 184 187 180 185 184 177 191 185 175 163
157 161 134 244 243 294 310 349 69 31 319 308 328 340 350 338 331 338 348 358 8 13 23 28 25 32 49 75 118 140 143 152 160 165 165 164 159 154 149 163 158 159 153 157 147 137 143 142 134
24 171 165 208 164 237 281 281 144 94 315 301 323 334 346 329 327 341 353 5 14 24 29 36 36 47 62 86 112 131 129 134 140 141 140 137 142 141 137 135 136 128 123 122 121 113 115 118 115